TEVEL2-2

Last updated on Mon Sep 15 2025 00:03:10 GMT+0000 (Coordinated Universal Time)

1 63219U 25052K 25256.98079384 .00010985 00000+0 47671-3 0 9993 2 63219 97.4147 149.5664 0004984 50.5922 309.5755 15.22496030 27902
UTC large
Height (km)
Speed (km/s)
/
Latitude / Longitude
Inclination (degrees)
Orbital Period (minutes)
Azimuth
Elevation
Range (km)
Doppler Factor

Next 0 passes for location: London (51.5072 / 0.1276)

Sorry there are no passes over London.